Temp
63 63 63 63 62 62 62 62 61 62 62 61 61 61 61 60 60 60 60 61 61 61 61 62 62 62 57 50 52 71 72 72 69 65 63 61 56 55 49 51 55 52 56 58 60 59 60
63 62 62 62 62 62 62 61 61 61 61 61 61 61 60 60 60 60 60 60 60 61 61 61 61 61 53 41 66 70 67 66 66 63 61 60 59 59 54 54 51 54 57 57 59 59 59
62 62 62 61 61 61 61 61 60 60 61 61 61 60 59 59 59 59 59 59 60 61 61 61 62 60 51 49 67 67 67 64 65 63 59 62 62 58 57 53 60 57 51 52 53 55 55
62 61 61 61 61 60 61 60 60 60 60 60 60 59 59 59 59 58 58 59 59 60 60 61 61 58 46 64 63 64 66 64 66 66 64 63 63 57 55 56 53 48 46 40 52 54 55
61 61 61 60 60 60 60 60 60 60 60 60 60 59 58 58 58 58 58 59 60 62 62 61 55 51 46 66 60 65 65 62 63 63 63 69 60 53 52 44 40 41 38 39 44 55 53
61 61 60 60 61 60 60 60 60 60 60 60 59 58 58 58 57 58 58 59 61 59 60 62 61 47 54 55 60 63 63 64 59 57 55 54 50 43 42 39 33 37 35 40 40 50 50
60 60 60 60 60 60 60 60 60 60 59 59 58 58 57 57 57 57 56 51 45 46 48 48 50 49 55 60 63 59 63 60 58 52 42 47 39 37 43 47 48 42 40 39 44 52 47
60 60 59 59 60 60 60 59 59 59 59 58 58 57 57 57 57 58 54 45 44 46 37 49 47 48 53 56 51 56 62 51 49 41 44 41 37 46 49 48 46 44 41 41 47 52 47
59 59 59 59 59 59 59 59 59 58 58 57 57 57 57 56 56 52 48 48 54 55 38 43 51 52 54 53 48 50 57 52 46 41 42 39 43 50 47 45 43 43 41 42 42 46 47
59 59 59 59 59 59 58 58 58 58 57 56 56 56 56 56 50 48 46 53 53 55 30 41 47 51 54 53 46 58 58 53 47 42 43 41 49 47 44 44 46 38 49 47 45 39 33
59 59 58 58 58 58 58 58 57 57 57 56 56 56 56 55 45 43 49 53 52 48 23 47 47 59 54 47 50 49 56 51 44 44 42 40 43 42 43 45 49 42 49 45 42 36 31
58 58 58 58 58 58 58 57 57 57 56 56 55 55 55 50 46 49 53 51 46 32 19 41 47 45 44 48 48 49 48 51 49 43 45 42 48 45 44 48 50 50 42 40 38 34 26
57 57 57 58 58 57 57 57 57 57 56 55 55 55 53 54 43 51 52 42 28 23 43 35 36 41 41 40 44 44 41 37 35 29 28 37 41 48 48 41 44 41 35 24 22 23 25
57 57 57 57 57 57 56 57 56 56 55 55 55 54 52 54 50 49 43 34 22 34 32 41 38 39 35 36 36 38 35 32 38 32 29 28 27 40 45 43 40 37 38 27 22 23 27
56 57 57 57 57 56 56 56 56 56 55 55 54 45 44 49 52 47 36 25 25 30 37 35 36 29 29 35 34 33 32 33 33 34 25 27 28 41 45 48 44 36 32 43 29 31 23
57 57 57 57 56 56 56 56 56 55 55 54 43 40 42 50 49 41 31 30 30 39 39 37 25 30 23 27 27 28 28 36 33 37 38 30 23 37 42 45 44 43 45 31 33 21 20
56 56 56 56 56 55 55 55 55 55 55 54 38 33 44 50 45 35 24 28 34 40 40 34 30 28 27 26 26 27 28 35 35 35 37 34 29 28 37 34 32 33 31 33 31 30 23
56 56 56 56 55 55 55 55 55 55 54 46 35 28 44 46 31 27 24 31 39 36 39 36 35 32 29 30 25 25 25 31 37 35 27 31 26 22 25 36 41 38 28 29 25 24 28
56 55 55 55 54 54 54 54 54 54 54 41 32 31 42 41 23 23 29 32 35 34 34 34 32 35 34 28 22 27 28 37 38 33 28 30 25 17 22 30 34 27 30 31 28 27 24
55 55 55 55 54 54 54 53 53 54 54 41 30 24 31 33 31 25 25 26 28 36 34 36 33 34 29 26 29 23 27 33 35 35 40 35 18 21 16 21 27 23 28 30 27 20 21
55 55 55 54 54 54 53 53 53 53 53 41 30 29 33 22 25 25 26 27 26 26 33 34 28 30 28 22 24 23 29 30 34 37 32 28 14 21 25 26 26 26 20 20 22 16 17
54 54 54 54 54 53 53 53 53 53 53 37 26 24 28 30 28 25 27 19 26 28 29 27 26 29 30 24 26 23 26 25 24 29 26 23 18 22 20 27 27 18 15 17 11 11 17
53 53 53 53 53 53 52 52 52 52 49 35 37 39 34 28 26 18 21 26 28 30 32 34 30 26 25 29 31 32 32 31 29 25 25 24 19 14 13 26 22 5 7 10 8 7 9
53 53 53 53 52 52 51 51 51 52 51 40 39 39 31 20 23 26 29 30 28 28 26 31 31 20 31 36 34 29 26 24 24 28 30 24 22 22 10 19 8 6 11 10 4 6 7
53 53 53 52 51 51 50 50 50 50 51 43 39 37 33 24 24 26 27 28 27 27 26 28 31 32 34 28 16 13 17 19 23 24 21 27 24 17 16 9 7 7 4 1 2 1 7
52 52 52 52 51 52 51 50 49 49 50 43 41 43 36 28 22 31 28 27 23 17 18 27 32 32 31 22 17 6 9 16 15 19 23 20 15 16 10 8 0 0 4 7 5 -8 7
52 52 52 52 51 51 51 50 50 49 49 45 42 43 38 30 29 31 28 27 30 23 19 20 22 22 29 17 11 9 10 15 12 7 5 4 -2 -2 4 -5 -7 1 4 7 -6 -8 6
51 51 51 51 51 51 51 51 51 49 49 43 41 44 39 32 34 33 30 26 26 25 18 18 20 20 15 12 14 11 7 9 6 3 0 -8 -11 -9 -6 -6 -9 3 4 -5 -0 5 6
50 50 50 50 50 50 50 50 51 50 48 47 37 42 41 34 28 31 27 28 27 25 23 21 22 23 23 19 13 11 8 9 8 -1 4 -7 -4 -4 -6 -7 -1 3 2 6 6 4 5
MSLP
1021.74 1021.57 1021.43 1021.17 1020.88 1020.57 1020.25 1019.92 1019.56 1019.07 1018.50 1018.02 1017.50 1016.97 1016.43 1015.82 1015.14 1014.45 1013.71 1012.98 1012.34 1011.72 1011.31 1011.09 1010.94 1010.95 1011.02 1010.17 1006.79 1004.60 1004.45 1004.69 1005.00 1005.83 1006.21 1006.46 1007.01 1007.50 1007.57 1007.34 1007.40 1006.86 1005.70 1005.52 1005.19 1005.06 1004.57
1021.86 1021.71 1021.55 1021.30 1020.98 1020.67 1020.34 1020.01 1019.60 1019.11 1018.58 1018.03 1017.42 1016.88 1016.29 1015.59 1014.89 1014.14 1013.30 1012.38 1011.67 1010.98 1010.50 1010.30 1010.32 1010.53 1010.71 1008.89 1004.83 1004.11 1004.60 1005.08 1005.07 1005.56 1005.91 1006.24 1006.13 1006.40 1006.77 1006.71 1006.71 1005.73 1005.61 1005.32 1004.97 1004.38 1004.33
1022.08 1021.92 1021.68 1021.40 1021.14 1020.76 1020.37 1020.01 1019.57 1019.08 1018.54 1017.97 1017.47 1016.87 1016.26 1015.45 1014.58 1013.66 1012.66 1011.53 1010.69 1010.00 1009.66 1009.43 1009.26 1009.88 1009.60 1005.94 1004.46 1004.28 1004.45 1004.84 1005.00 1005.18 1005.51 1005.69 1005.74 1006.07 1006.19 1006.66 1005.87 1005.57 1005.47 1005.03 1004.52 1004.20 1003.91
1022.27 1022.08 1021.85 1021.52 1021.14 1020.83 1020.44 1020.06 1019.65 1019.12 1018.55 1018.00 1017.43 1016.73 1015.96 1015.13 1014.11 1013.07 1011.88 1010.54 1009.73 1009.06 1008.75 1008.74 1008.68 1009.39 1007.93 1004.85 1004.67 1004.70 1004.66 1004.68 1004.87 1005.09 1005.36 1005.47 1005.67 1006.02 1006.14 1006.11 1005.86 1005.97 1005.71 1004.86 1003.88 1003.82 1003.48
1022.43 1022.23 1021.93 1021.64 1021.30 1020.91 1020.47 1020.09 1019.61 1019.07 1018.46 1017.84 1017.27 1016.62 1015.82 1014.90 1013.80 1012.73 1011.25 1009.73 1008.69 1007.85 1008.19 1008.64 1008.86 1008.69 1006.48 1004.45 1004.43 1004.00 1004.11 1004.55 1004.85 1005.05 1005.14 1005.17 1005.37 1005.73 1006.00 1006.52 1006.96 1006.28 1005.26 1004.89 1004.38 1003.54 1003.47
1022.51 1022.21 1022.01 1021.70 1021.25 1020.84 1020.44 1019.98 1019.41 1018.81 1018.21 1017.65 1017.04 1016.42 1015.60 1014.64 1013.49 1012.38 1011.02 1009.09 1008.40 1008.04 1008.03 1008.24 1008.07 1008.78 1005.97 1004.46 1003.97 1003.82 1003.88 1004.39 1005.07 1005.30 1005.68 1005.68 1005.78 1005.63 1005.75 1006.46 1005.02 1005.53 1005.40 1004.69 1003.99 1003.18 1002.98
1022.71 1022.39 1022.12 1021.75 1021.24 1020.79 1020.39 1019.95 1019.33 1018.76 1018.23 1017.69 1017.05 1016.31 1015.47 1014.36 1013.28 1012.07 1010.69 1009.59 1009.68 1009.10 1009.13 1008.27 1007.43 1006.68 1005.37 1004.76 1004.11 1004.12 1004.01 1004.47 1004.92 1005.49 1005.87 1005.82 1005.91 1004.52 1004.60 1004.22 1004.27 1004.73 1004.48 1003.62 1003.11 1002.66 1002.72
1022.87 1022.59 1022.25 1021.80 1021.27 1020.82 1020.39 1019.97 1019.33 1018.73 1018.25 1017.71 1017.08 1016.25 1015.37 1014.29 1013.21 1012.18 1011.48 1011.61 1012.49 1012.68 1009.93 1007.59 1007.03 1006.88 1005.70 1005.66 1005.08 1004.23 1004.17 1004.98 1005.27 1005.48 1006.00 1006.20 1004.11 1004.40 1004.43 1004.51 1004.50 1004.32 1004.14 1002.89 1002.70 1002.76 1002.63
1022.99 1022.61 1022.22 1021.85 1021.38 1020.92 1020.48 1019.97 1019.34 1018.83 1018.34 1017.76 1017.13 1016.29 1015.23 1014.20 1012.97 1012.58 1012.95 1012.76 1012.44 1012.11 1011.16 1007.22 1006.05 1005.29 1004.58 1004.84 1004.64 1004.28 1004.20 1004.71 1005.11 1005.42 1005.48 1005.06 1003.60 1003.42 1004.12 1003.84 1003.95 1003.18 1002.98 1002.37 1002.52 1002.60 1002.02
1022.96 1022.60 1022.26 1021.90 1021.44 1021.00 1020.58 1020.12 1019.51 1018.87 1018.27 1017.74 1017.11 1016.23 1015.51 1014.34 1013.30 1013.34 1012.89 1012.86 1012.42 1012.00 1011.01 1006.77 1005.40 1004.79 1004.65 1004.49 1004.38 1003.67 1003.62 1003.93 1004.46 1004.65 1005.29 1004.53 1003.54 1003.05 1003.32 1002.65 1003.09 1002.11 1001.97 1002.46 1002.59 1003.03 1002.68
1023.06 1022.68 1022.31 1021.88 1021.48 1021.04 1020.56 1020.10 1019.55 1018.94 1018.26 1017.70 1016.94 1016.12 1015.44 1014.79 1014.80 1014.23 1013.87 1012.84 1012.46 1012.21 1010.47 1006.26 1005.51 1004.87 1004.99 1005.30 1004.82 1003.95 1003.84 1004.13 1003.96 1004.12 1004.45 1002.78 1002.29 1002.43 1001.78 1000.56 1001.78 1000.49 1001.69 1001.90 1002.38 1002.74 1003.20
1023.10 1022.73 1022.37 1021.94 1021.54 1021.04 1020.57 1020.21 1019.60 1018.95 1018.18 1017.34 1016.64 1016.00 1015.37 1014.72 1014.64 1013.93 1013.12 1012.64 1012.51 1012.33 1009.11 1006.82 1006.57 1006.70 1006.45 1005.99 1005.33 1004.82 1004.68 1004.58 1004.71 1004.75 1004.37 1002.81 1002.48 1002.30 1001.31 1000.91 1000.90 1000.72 1001.33 1001.95 1002.41 1003.08 1003.14
1023.09 1022.76 1022.38 1021.90 1021.48 1021.07 1020.67 1020.16 1019.54 1018.98 1018.26 1017.35 1016.25 1015.68 1015.03 1014.64 1014.57 1013.63 1013.06 1013.06 1013.04 1011.80 1009.25 1009.59 1009.32 1009.05 1008.29 1007.42 1006.60 1006.70 1006.32 1005.54 1005.61 1005.70 1004.75 1003.48 1002.40 1001.76 1001.81 1001.57 1001.34 1001.36 1002.08 1003.00 1003.41 1003.28 1001.59
1023.04 1022.73 1022.38 1021.98 1021.59 1021.23 1020.84 1020.25 1019.71 1019.09 1018.27 1017.28 1016.39 1015.51 1014.86 1014.84 1014.36 1013.65 1013.38 1013.44 1013.32 1012.79 1012.45 1011.76 1011.26 1009.99 1009.39 1009.87 1009.45 1008.90 1008.47 1008.18 1008.22 1008.14 1007.01 1005.30 1003.04 1001.95 1001.05 1000.76 1000.46 1000.76 1000.73 1001.35 1001.10 1001.90 1002.13
1023.09 1022.69 1022.40 1022.01 1021.63 1021.24 1020.80 1020.32 1019.74 1019.02 1018.16 1017.31 1016.56 1015.82 1015.48 1014.98 1014.39 1014.07 1014.27 1014.37 1014.58 1014.36 1013.89 1012.79 1011.75 1011.29 1011.42 1011.06 1011.34 1010.67 1010.09 1009.50 1009.82 1010.09 1009.87 1007.24 1004.74 1003.40 1001.89 1000.91 1000.97 1000.83 1000.79 1000.23 1001.13 1001.27 1002.54
1022.98 1022.60 1022.26 1021.91 1021.61 1021.26 1020.78 1020.33 1019.62 1018.98 1018.17 1017.45 1017.36 1017.04 1016.04 1015.07 1014.50 1014.42 1014.97 1015.26 1015.14 1014.89 1014.33 1013.56 1013.31 1013.12 1013.04 1012.80 1012.49 1011.97 1010.90 1009.74 1010.18 1010.34 1010.22 1008.86 1006.61 1004.28 1002.51 1002.08 1001.57 1000.69 1000.91 1001.41 1001.84 1002.04 1002.59
1022.90 1022.56 1022.25 1021.91 1021.53 1021.21 1020.80 1020.27 1019.64 1019.01 1018.42 1017.59 1017.67 1017.68 1015.95 1015.19 1014.82 1015.66 1016.74 1016.63 1015.69 1015.17 1014.70 1014.57 1014.09 1014.00 1013.67 1013.69 1013.29 1012.60 1011.77 1010.61 1010.52 1009.74 1009.73 1009.32 1008.32 1006.56 1004.26 1003.45 1003.14 1002.67 1002.46 1002.60 1002.55 1002.41 1002.60
1022.92 1022.51 1022.16 1021.82 1021.57 1021.23 1020.80 1020.29 1019.75 1019.31 1018.61 1018.08 1018.80 1018.35 1016.25 1015.83 1016.58 1017.26 1017.61 1017.18 1016.73 1015.75 1014.96 1014.46 1014.32 1014.03 1014.10 1013.90 1013.44 1012.91 1011.95 1011.12 1010.41 1010.42 1009.99 1009.80 1008.76 1007.26 1006.30 1004.58 1004.14 1004.31 1005.27 1005.03 1003.92 1004.08 1003.60
1022.88 1022.58 1022.28 1022.00 1021.65 1021.29 1020.90 1020.45 1019.94 1019.48 1019.15 1019.49 1019.79 1019.16 1016.96 1017.13 1018.35 1018.82 1018.39 1017.80 1017.04 1016.22 1015.63 1015.00 1014.85 1014.44 1014.35 1014.16 1013.71 1012.73 1011.95 1010.74 1010.67 1010.78 1010.54 1010.19 1009.52 1009.17 1007.33 1005.78 1005.71 1006.70 1006.91 1006.69 1006.75 1006.60 1006.50
1023.02 1022.73 1022.39 1022.14 1021.82 1021.44 1020.93 1020.54 1020.12 1019.60 1019.36 1019.58 1020.14 1020.04 1019.09 1018.65 1019.22 1019.76 1019.41 1018.28 1017.49 1016.54 1015.88 1015.65 1014.89 1014.55 1014.82 1013.99 1013.32 1012.90 1012.26 1011.20 1010.84 1010.79 1010.41 1010.39 1010.44 1010.39 1009.63 1008.79 1008.44 1008.25 1008.32 1008.56 1008.63 1008.79 1009.82
1023.09 1022.81 1022.52 1022.30 1021.92 1021.47 1021.20 1020.81 1020.34 1019.95 1019.56 1019.94 1020.64 1020.96 1021.04 1020.75 1020.22 1020.32 1020.03 1018.91 1018.13 1017.20 1016.31 1015.94 1015.25 1015.34 1015.29 1014.51 1013.68 1012.80 1012.50 1011.63 1010.42 1010.18 1010.30 1010.74 1010.84 1010.45 1009.79 1009.55 1009.74 1010.18 1011.36 1011.71 1011.80 1013.49 1013.86
1023.09 1022.90 1022.65 1022.39 1021.95 1021.72 1021.40 1020.88 1020.52 1020.20 1019.75 1020.25 1020.95 1021.30 1021.18 1021.04 1020.79 1020.61 1019.82 1019.35 1018.66 1017.80 1017.59 1016.37 1016.00 1015.22 1015.09 1014.84 1014.60 1013.38 1013.21 1012.06 1011.70 1010.38 1010.81 1011.18 1010.97 1010.73 1010.28 1009.96 1010.28 1012.54 1014.10 1014.79 1015.90 1017.16 1017.31
1023.25 1023.08 1022.77 1022.41 1022.18 1021.88 1021.45 1021.11 1020.96 1020.66 1020.38 1020.69 1020.81 1020.71 1020.80 1020.50 1020.52 1020.58 1019.94 1019.35 1018.70 1018.25 1016.88 1016.62 1015.89 1015.46 1014.70 1014.08 1013.94 1013.42 1012.64 1011.62 1011.61 1011.40 1011.15 1011.28 1011.13 1011.22 1010.46 1010.74 1011.84 1015.44 1018.92 1019.30 1020.79 1022.08 1021.76
1023.29 1023.06 1022.77 1022.56 1022.26 1021.96 1021.79 1021.56 1021.26 1020.86 1020.52 1020.79 1020.51 1020.58 1020.90 1020.59 1020.45 1020.19 1019.46 1019.17 1018.77 1018.51 1017.69 1016.55 1015.86 1015.60 1014.61 1013.93 1013.26 1012.33 1011.70 1011.34 1011.56 1011.37 1010.98 1010.95 1011.29 1011.51 1011.71 1012.37 1015.35 1020.83 1022.55 1022.47 1023.44 1024.39 1024.54
1023.32 1023.02 1022.78 1022.51 1022.22 1022.06 1021.84 1021.55 1021.24 1020.87 1020.58 1020.57 1020.34 1020.47 1020.50 1020.07 1019.76 1019.37 1019.08 1018.87 1018.39 1018.14 1017.70 1016.89 1015.86 1015.44 1014.87 1014.56 1014.33 1013.74 1012.58 1012.22 1012.34 1012.13 1012.06 1011.87 1012.14 1012.68 1013.43 1015.81 1020.22 1022.44 1024.69 1026.07 1026.21 1027.22 1027.18
1023.57 1023.18 1022.75 1022.36 1022.11 1021.92 1021.52 1021.44 1021.25 1021.04 1020.72 1020.38 1020.11 1019.67 1019.79 1019.67 1018.92 1018.84 1018.92 1018.70 1018.78 1018.21 1017.71 1016.83 1016.28 1015.51 1015.33 1015.34 1015.53 1015.52 1014.85 1014.17 1014.03 1013.80 1013.95 1014.07 1014.62 1015.13 1016.34 1018.95 1022.85 1026.07 1027.12 1027.65 1027.94 1029.13 1029.02
1023.55 1023.12 1022.65 1022.33 1022.20 1021.98 1021.69 1021.43 1021.18 1020.97 1020.52 1020.16 1019.60 1019.28 1019.45 1019.14 1018.54 1018.57 1018.83 1018.88 1019.07 1019.12 1019.01 1018.32 1017.93 1016.93 1016.48 1016.75 1016.72 1016.47 1015.98 1016.06 1017.41 1018.88 1019.44 1019.48 1020.13 1020.69 1021.27 1023.49 1026.84 1028.36 1028.20 1027.80 1029.30 1031.58 1030.46
1023.47 1023.12 1022.81 1022.56 1022.19 1021.87 1021.61 1021.25 1020.73 1020.61 1020.39 1020.18 1019.30 1018.54 1018.92 1018.67 1018.54 1019.13 1019.88 1020.36 1020.47 1020.70 1020.51 1019.88 1018.89 1018.34 1018.19 1018.14 1018.43 1018.78 1018.68 1019.20 1021.15 1023.93 1024.80 1026.09 1026.56 1026.43 1026.41 1027.37 1030.12 1030.15 1029.32 1030.15 1032.01 1031.43 1031.22
1023.50 1023.15 1022.91 1022.56 1022.15 1021.80 1021.45 1021.02 1020.50 1020.21 1020.15 1019.74 1019.28 1019.12 1018.87 1019.10 1020.85 1021.24 1022.01 1022.44 1022.43 1022.23 1021.82 1021.06 1020.95 1020.39 1020.07 1019.78 1020.09 1020.48 1021.54 1022.64 1024.02 1026.52 1028.02 1029.47 1030.67 1030.55 1031.33 1032.10 1032.73 1032.74 1032.69 1032.68 1032.47 1032.22 1031.85
Wind_Speed
15 15 15 16 17 17 18 18 19 20 20 21 21 23 24 25 25 26 26 27 27 26 23 21 18 12 6 6 14 9 3 11 10 10 13 13 9 11 8 8 14 14 19 7 18 14 15
15 15 15 16 16 17 17 18 18 20 20 21 21 23 24 26 26 27 29 30 28 27 24 20 16 9 5 11 7 6 8 7 7 10 12 7 9 11 7 9 8 6 19 20 18 21 10
14 15 15 15 16 17 18 19 19 20 20 21 23 24 26 27 28 30 31 31 28 26 24 19 11 10 9 20 3 3 10 5 4 8 6 7 7 6 5 11 13 7 12 10 8 5 7
14 14 15 16 17 18 19 19 19 20 21 21 23 25 27 28 30 31 32 32 28 25 20 11 5 10 11 7 12 12 10 6 8 8 6 5 4 6 5 4 8 4 5 7 6 6 8
14 14 16 16 17 17 18 18 19 20 21 22 23 25 28 29 29 31 34 32 30 10 3 2 6 6 10 3 4 7 9 8 6 5 4 4 3 6 0 2 6 4 11 7 6 9 7
14 15 16 16 17 17 18 18 18 19 21 23 24 25 28 29 30 31 30 32 9 3 2 6 4 3 4 3 2 3 3 6 4 4 2 4 4 5 6 6 21 13 9 7 8 8 10
15 15 16 17 17 18 19 20 20 21 22 23 25 25 26 28 29 30 21 6 9 6 6 6 4 7 6 6 2 2 4 4 5 5 8 6 6 16 19 23 14 6 9 11 6 9 5
15 15 16 16 18 19 20 21 22 23 23 24 24 25 27 29 30 26 8 6 6 5 15 13 19 17 19 6 5 5 6 6 6 10 4 4 22 15 13 14 17 18 18 23 18 13 9
14 15 16 18 19 19 20 21 21 22 24 24 24 25 28 30 32 5 6 6 5 8 8 11 6 5 2 9 6 6 11 4 6 7 11 16 10 17 15 15 18 21 22 21 18 4 7
15 16 17 18 19 20 21 21 22 23 23 23 25 25 26 30 6 8 1 9 7 3 5 6 1 1 2 2 4 8 9 9 8 13 11 15 20 17 15 22 17 22 17 14 11 5 11
15 16 17 18 19 19 20 21 22 23 23 22 24 26 26 22 6 4 8 11 8 2 6 3 3 2 2 2 7 1 1 4 15 8 3 10 4 12 24 28 18 19 8 10 6 5 0
15 16 17 17 18 19 21 21 22 22 22 24 24 26 25 7 3 5 10 10 1 1 9 6 6 11 16 8 4 2 2 2 2 7 18 21 10 6 6 6 18 7 3 3 3 4 10
15 15 16 17 18 19 20 21 22 23 23 24 27 26 18 6 5 7 9 4 3 3 12 11 12 16 16 9 6 12 7 3 6 3 6 6 17 19 9 6 4 2 6 1 3 6 14
14 15 15 16 17 18 19 20 21 22 24 25 27 24 8 2 5 6 4 4 1 8 9 13 14 13 4 17 14 16 10 11 14 13 9 7 13 8 7 19 18 13 17 9 16 9 11
12 14 15 16 17 18 18 19 20 22 22 25 21 6 4 5 7 4 4 5 4 6 14 14 13 8 8 22 8 8 9 6 10 11 6 7 7 13 19 10 10 4 10 20 6 6 1
13 15 16 16 17 17 18 19 19 20 22 24 5 4 4 8 7 4 5 5 5 10 16 9 6 4 14 10 7 11 6 5 11 7 6 7 12 8 10 7 11 16 2 4 9 7 14
13 14 15 15 15 16 16 18 19 20 22 22 4 5 5 10 4 5 5 4 5 10 13 10 14 10 8 5 4 6 6 13 1 12 8 7 5 14 5 3 2 5 4 5 3 5 7
13 13 14 15 15 15 16 17 18 18 22 8 4 3 5 5 6 3 3 7 8 10 13 8 7 7 6 13 6 8 7 5 7 3 9 2 4 4 11 22 14 3 8 10 7 7 3
13 14 15 15 15 15 16 17 17 17 17 2 3 3 5 5 5 4 5 6 3 12 11 6 7 7 11 10 6 4 5 4 10 3 4 4 3 8 9 5 8 5 5 7 5 6 6
13 13 14 14 15 16 17 16 16 17 17 3 3 5 5 5 1 3 6 5 9 7 9 9 12 6 13 16 7 6 9 8 9 9 16 9 3 6 10 16 6 7 7 9 5 3 7
12 13 14 15 15 16 16 16 17 17 18 3 3 2 1 6 4 6 3 4 12 10 2 6 5 9 14 7 10 3 9 11 13 13 2 2 6 4 13 9 14 7 11 14 6 10 2
13 14 14 15 16 16 16 16 17 16 18 4 2 3 4 7 6 5 6 3 8 9 8 7 10 18 14 10 12 19 14 12 10 8 3 1 8 3 12 15 15 7 17 12 17 13 8
12 12 13 13 13 13 13 14 14 14 10 2 2 1 2 5 3 3 4 6 11 13 7 10 13 11 10 10 6 14 18 21 17 14 15 7 4 3 10 11 2 9 16 14 17 18 7
12 12 13 14 14 17 17 17 16 15 9 2 3 1 2 5 2 4 7 8 12 10 11 12 6 2 9 10 15 10 12 11 7 11 11 4 3 3 5 3 3 7 9 17 20 17 16
12 13 13 13 11 14 15 14 15 15 15 1 2 1 3 5 4 8 4 8 7 7 7 11 6 5 10 8 5 8 7 6 2 1 5 4 3 3 3 6 8 4 9 7 7 9 14
13 14 15 12 9 12 15 13 14 16 16 4 4 3 3 3 6 2 7 3 6 4 5 5 6 9 4 2 2 1 3 3 5 7 8 8 9 2 4 3 4 2 15 9 5 2 11
13 14 16 14 12 12 14 13 13 15 17 8 4 4 3 4 3 1 4 3 2 2 3 5 10 8 5 3 2 2 4 1 4 5 9 7 8 5 5 4 2 12 16 10 3 1 8
13 13 13 12 12 15 16 17 15 12 17 9 7 6 3 3 2 7 9 6 5 4 3 5 7 5 5 7 4 4 3 3 6 4 5 5 5 5 5 4 1 18 5 7 5 7 8
14 15 15 15 16 17 18 19 18 14 15 15 3 5 5 3 4 11 12 12 6 3 4 3 3 4 4 3 3 3 5 6 6 3 7 6 4 3 4 2 1 5 9 6 7 6 9
Wind_Direction
30 26 20 16 14 11 6 3 359 356 356 352 351 347 343 338 333 327 322 317 314 309 306 300 296 296 293 228 244 270 136 145 151 157 193 188 181 188 198 208 237 233 249 245 243 252 258
29 25 21 16 13 10 7 6 3 358 353 353 348 346 342 336 332 327 321 316 312 306 302 297 284 257 228 254 250 205 143 154 177 171 198 192 200 203 217 245 193 236 238 251 251 255 248
27 19 16 14 10 7 7 5 2 1 355 352 348 343 340 335 332 327 323 314 310 306 303 299 286 202 225 246 242 120 155 189 185 192 172 214 248 189 195 263 281 279 275 273 224 223 229
23 18 13 10 9 6 4 1 359 354 352 348 345 341 338 334 329 327 321 313 309 304 297 287 184 182 248 251 240 266 249 192 205 205 210 257 258 234 190 280 339 289 277 254 221 210 248
21 14 10 7 3 359 357 355 352 350 346 343 342 339 336 333 328 327 321 312 310 305 262 189 133 190 256 282 219 242 194 186 203 219 207 222 171 206 128 173 305 240 254 246 280 237 240
14 10 1 356 354 353 349 348 344 342 341 342 339 338 335 331 329 328 321 311 302 54 222 192 265 251 259 261 131 7 215 173 176 152 176 214 209 185 152 155 226 222 247 248 225 249 202
8 3 360 353 357 354 353 350 348 345 344 343 339 334 335 331 331 330 328 359 10 348 18 237 247 272 328 350 66 251 202 177 166 146 192 211 203 211 205 211 229 224 232 236 229 243 253
3 358 356 351 356 357 355 351 349 348 346 343 342 335 333 331 330 325 337 72 156 246 292 278 251 258 258 261 281 269 140 170 178 208 167 248 235 221 215 217 226 234 250 256 269 264 250
356 355 358 359 356 356 356 352 350 348 346 347 347 336 333 333 326 12 331 49 339 325 279 297 220 230 304 159 216 228 159 194 218 224 210 220 218 214 214 221 224 232 232 245 249 252 261
357 360 357 358 357 356 356 353 351 349 347 345 341 336 336 336 10 330 4 344 331 347 317 266 187 2 26 61 240 218 200 178 215 214 221 249 237 241 217 230 216 240 228 251 260 251 266
1 359 0 359 357 355 354 354 352 350 346 342 336 332 333 333 276 345 311 321 325 264 355 55 65 282 67 282 314 0 26 228 246 248 176 233 244 225 228 230 212 245 194 212 209 218 186
2 360 358 358 356 355 355 355 351 349 344 337 330 329 333 324 304 265 309 311 356 13 261 22 48 14 355 317 285 0 331 182 283 261 253 260 278 301 229 265 225 237 153 151 150 142 244
360 0 356 356 356 358 355 354 352 349 345 334 330 331 327 300 300 317 317 354 17 155 341 12 350 332 323 328 346 6 326 208 219 246 245 277 256 257 262 275 316 151 109 242 258 209 240
359 359 356 356 357 358 356 355 352 351 345 336 334 327 306 9 318 327 354 29 173 23 13 343 332 316 296 22 350 346 359 344 41 13 315 294 290 205 218 214 211 202 191 184 226 211 242
359 357 355 351 350 352 350 350 347 349 343 338 339 324 348 326 330 5 31 53 45 0 338 329 327 6 352 338 340 352 328 278 34 26 346 289 254 332 299 277 213 239 215 234 308 232 7
357 356 353 358 356 353 351 348 348 350 344 340 337 342 296 314 329 22 55 11 0 13 349 343 25 326 323 330 332 349 314 342 350 21 2 321 306 274 313 36 296 239 213 250 220 228 245
357 357 358 358 356 354 354 357 355 353 349 342 38 15 273 327 41 41 62 333 327 343 348 336 312 305 318 316 251 302 269 309 14 334 338 310 316 318 302 321 293 346 311 229 241 223 230
2 359 357 3 7 5 3 3 3 359 354 30 17 19 300 12 44 8 14 318 327 333 328 317 333 272 299 305 284 301 260 257 351 315 331 332 284 291 292 266 281 302 20 343 332 350 241
11 12 10 8 7 6 6 6 5 1 7 351 347 278 313 67 36 357 309 306 277 331 327 326 309 328 313 301 294 269 279 252 306 342 328 309 330 324 306 17 59 39 306 323 270 226 318
17 16 14 11 9 11 11 7 2 359 354 28 45 354 324 23 23 40 328 288 329 309 291 330 294 311 338 317 281 271 287 301 333 289 294 318 223 232 278 278 290 297 315 345 352 356 346
14 15 13 12 11 11 8 6 3 353 344 69 39 0 106 328 334 321 265 274 331 336 250 323 316 338 321 306 307 224 315 312 297 289 50 112 246 270 284 286 286 330 35 42 62 5 49
19 16 14 12 12 9 7 6 4 359 348 65 108 49 337 284 279 306 319 294 316 336 316 303 321 312 316 296 287 298 313 298 258 296 210 266 277 258 280 281 255 85 11 79 52 5 48
17 12 10 8 3 1 3 2 357 359 16 22 285 309 178 255 254 48 251 342 311 322 291 316 301 297 312 293 271 277 269 265 253 269 276 239 206 172 261 250 133 33 358 71 75 37 18
10 5 6 7 18 10 0 355 355 354 1 177 272 157 254 268 189 232 280 305 304 306 287 299 301 133 288 308 300 278 268 276 255 270 265 237 214 225 260 214 122 106 40 73 79 39 24
2 0 356 355 10 10 3 358 355 356 344 279 246 194 236 263 232 285 260 281 284 254 260 279 284 280 318 321 347 343 328 15 19 184 339 285 205 250 269 49 116 66 28 357 5 42 15
4 359 355 352 355 356 0 357 354 353 350 324 283 232 199 262 240 266 302 252 299 299 320 259 340 310 325 282 350 253 283 256 310 340 5 19 23 99 15 114 151 16 330 312 296 69 11
358 6 6 15 20 1 357 347 349 350 346 334 267 278 249 256 258 178 241 298 298 332 277 331 332 337 9 309 315 278 292 254 35 33 337 355 355 38 349 94 43 332 319 303 127 284 12
355 356 353 350 347 342 342 337 337 337 343 351 276 268 256 253 326 28 27 19 350 11 351 308 342 356 342 16 15 319 344 16 82 35 6 51 345 15 331 65 345 342 22 61 317 13 12
358 354 349 344 340 334 329 327 328 348 345 351 297 3 323 32 54 82 64 40 27 327 305 329 286 348 322 335 2 320 8 4 12 73 12 41 2 13 37 99 224 357 49 36 24 11 9